Probability
0 0 0 0 0 0 0 0 0 0 0 0 0 0 0 0 0 0 0 0 0 0 0 0 0 0 0 0 0 0 0 0 0 0 0 0 0 0 0 0 0 0 0
0 0 0 0 0 0 0 0 0 0 0 0 0 0 0 0 0 0 0 0 0 0 0 0 0 0 0 0 0 0 0 0 0 0 0 0 0 0 0 0 0 0 0
0 0 0 0 0 0 0 0 0 0 0 0 0 0 0 0 0 0 0 0 0 0 0 0 0 0 0 0 0 0 0 0 0 0 0 0 0 0 0 0 0 0 0
0 0 0 0 0 0 0 0 0 0 0 0 0 0 0 0 0 0 0 0 0 0 0 0 0 0 0 0 0 0 0 0 0 0 0 0 0 0 0 0 0 0 0
0 0 0 0 0 0 0 0 0 0 0 0 0 0 0 0 0 0 0 0 0 0 0 0 0 0 0 0 0 0 0 0 0 0 0 0 0 0 0 0 0 0 0
0 0 0 0 0 0 0 0 0 0 0 0 0 0 0 0 0 0 0 0 0 0 0 0 0 0 0 0 0 0 0 0 0 0 0 0 0 0 0 0 0 0 0
0 0 0 0 0 0 0 0 0 0 0 0 0 0 0 0 0 0 0 0 0 0 0 0 0 0 0 0 0 0 0 0 0 0 0 0 0 0 0 0 0 0 0
0 0 0 0 0 0 0 0 0 0 0 0 0 0 0 0 0 0 0 0 0 0 0 0 0 0 0 0 0 0 0 0 0 0 0 0 0 0 0 0 0 0 0
0 0 0 0 0 0 0 0 0 0 0 0 0 0 0 0 0 0 0 0 0 0 0 0 0 0 0 0 0 0 0 0 0 0 0 0 0 0 0 0 0 0 0
0 0 0 0 0 0 0 0 0 0 0 0 0 0 0 0 0 0 0 0 0 0 0 0 0 0 0 0 0 0 0 0 0 0 0 0 0 0 0 0 0 0 0
0 0 0 0 0 0 0 0 0 0 0 0 0 0 0 0 0 0 0 0 0 0 0 0 0 0 0 0 0 0 0 0 0 0 0 0 0 0 0 0 0 0 0
0 0 0 0 0 0 0 0 0 0 0 0 0 0 0 0 0 0 0 0 0 0 0 0 0 0 0 0 0 0 0 0 0 0 0 0 0 0 0 0 0 0 0
0 0 0 0 0 0 0 0 0 0 0 0 0 0 0 0 0 0 0 0 0 0 0 0 0 0 0 0 0 0 0 0 0 0 0 0 0 0 0 0 0 0 0
0 0 0 0 0 0 0 0 0 0 0 0 0 0 0 0 0 0 0 0 0 0 0 0 0 0 0 0 0 0 0 0 0 0 0 0 0 0 0 0 0 0 0
0 0 0 0 0 0 0 0 0 0 0 0 0 0 0 0 0 0 0 0 0 0 0 0 0 0 0 0 0 0 0 0 0 0 0 0 0 0 0 0 0 0 0
0 0 0 0 0 0 0 0 0 0 0 0 0 0 0 0 0 0 0 0 0 0 0 0 0 0 0 0 0 0 0 0 0 0 0 0 0 0 0 0 0 0 0
0 0 0 0 0 0 0 0 0 0 0 0 0 0 0 0 0 0 0 0 0 0 0 0 0 0 0 0 0 0 0 0 0 0 0 0 0 0 0 0 0 0 0
0 0 0 0 0 0 0 0 0 0 0 0 0 0 0 0 0 0 0 0 0 0 0 0 0 0 0 0 0 0 0 0 0 0 0 0 0 0 0 0 0 0 0
0 0 0 0 0 0 0 0 0 0 0 0 0 0 0 0 0 0 0 0 0 0 0 0 0 0 0 0 0 0 0 0 0 0 0 0 0 0 0 0 0 0 0
0 0 0 0 0 0 0 0 0 0 0 0 0 0 0 0 0 0 0 0 0 0 0 0 0 0 0 0 0 0 0 0 0 0 0 0 0 0 0 0 0 0 0
0 0 0 0 0 0 0 0 0 0 0 0 0 0 0 0 0 0 0 0 0 0 0 0 0 0 0 0 0 0 0 0 0 0 0 0 0 0 0 0 0 0 0
0 0 0 0 0 0 0 0 0 0 0 0 0 0 0 0 0 0 0 0 0 0 0 0 0 0 0 0 0 0 0 0 0 0 0 0 0 0 0 0 0 0 0
0 0 0 0 0 0 0 0 0 0 0 0 0 0 0 0 0 0 0 0 0 0 0 0 0 0 0 0 0 0 0 0 0 0 0 0 0 0 0 0 0 0 0
0 0 0 0 0 0 0 0 0 0 0 0 0 0 0 0 0 0 0 0 0 0 0 0 0 0 0 0 0 0 0 0 0 0 0 0 0 0 0 0 0 0 0
0 0 0 0 0 0 0 0 0 0 0 0 0 0 0 0 0 0 0 0 0 0 0 0 0 0 0 0 0 0 0 0 0 0 0 0 0 0 0 0 0 0 0
0 0 0 0 0 0 0 0 0 0 0 0 0 0 0 0 0 0 0 0 0 0 0 0 0 0 0 0 0 0 0 0 0 0 0 0 0 0 0 0 0 0 0
Height
5584 5583 5582 5580 5580 5580 5581 5582 5583 5585 5586 5588 5589 5591 5592 5593 5593 5593 5594 5594 5594 5595 5596 5598 5600 5601 5602 5604 5605 5606 5607 5609 5612 5615 5615 5616 5617 5618 5618 5619 5619 5620 5621
5575 5574 5573 5571 5571 5572 5573 5574 5574 5575 5576 5578 5579 5580 5581 5581 5581 5581 5582 5582 5582 5583 5584 5585 5587 5588 5590 5591 5592 5594 5595 5597 5599 5602 5603 5604 5605 5606 5607 5608 5609 5610 5611
5567 5566 5565 5564 5564 5564 5565 5566 5566 5566 5567 5568 5568 5569 5570 5570 5570 5570 5570 5571 5571 5571 5572 5574 5575 5576 5577 5579 5580 5581 5583 5585 5586 5589 5591 5592 5594 5595 5596 5597 5598 5599 5600
5560 5559 5558 5557 5557 5558 5558 5558 5557 5557 5558 5559 5559 5559 5560 5560 5560 5560 5560 5560 5560 5561 5561 5562 5564 5564 5566 5567 5568 5569 5571 5573 5574 5577 5579 5581 5582 5583 5585 5587 5588 5589 5590
5553 5552 5551 5551 5551 5551 5551 5551 5550 5550 5550 5550 5551 5551 5550 5550 5550 5550 5550 5550 5551 5551 5551 5552 5553 5553 5554 5555 5556 5558 5559 5561 5563 5565 5567 5570 5571 5573 5575 5577 5578 5579 5580
5546 5545 5545 5545 5544 5544 5544 5544 5543 5543 5543 5543 5542 5542 5542 5542 5542 5541 5541 5541 5542 5542 5542 5542 5542 5543 5543 5544 5545 5547 5548 5550 5552 5554 5556 5559 5561 5563 5565 5566 5568 5570 5571
5539 5538 5538 5538 5538 5538 5537 5537 5536 5536 5535 5534 5534 5534 5534 5534 5533 5533 5533 5533 5533 5533 5533 5533 5533 5533 5534 5534 5535 5537 5538 5539 5541 5543 5546 5548 5551 5553 5556 5558 5558 5559 5561
5532 5532 5532 5532 5532 5531 5531 5530 5529 5529 5528 5528 5527 5527 5526 5526 5525 5525 5525 5525 5525 5525 5525 5524 5524 5524 5525 5525 5526 5527 5528 5529 5531 5533 5536 5539 5541 5543 5545 5548 5549 5550 5550
5526 5526 5525 5526 5525 5525 5525 5523 5522 5522 5521 5521 5520 5520 5519 5519 5518 5517 5517 5517 5517 5517 5516 5516 5516 5516 5516 5516 5517 5518 5519 5519 5520 5522 5525 5528 5531 5533 5535 5538 5539 5541 5541
5520 5519 5519 5519 5518 5518 5518 5517 5516 5515 5515 5514 5513 5513 5512 5511 5511 5510 5510 5510 5510 5509 5508 5507 5507 5507 5506 5506 5507 5507 5508 5509 5511 5513 5515 5518 5521 5523 5526 5528 5530 5531 5532
5514 5513 5512 5512 5512 5511 5511 5510 5509 5509 5508 5507 5507 5506 5505 5504 5503 5503 5502 5502 5502 5501 5500 5499 5498 5497 5497 5497 5497 5498 5499 5500 5501 5503 5506 5509 5512 5514 5516 5519 5521 5522 5523
5507 5506 5506 5505 5505 5504 5504 5503 5503 5502 5502 5501 5500 5499 5498 5497 5496 5495 5494 5494 5493 5493 5492 5491 5490 5489 5489 5489 5489 5489 5490 5491 5492 5494 5497 5500 5503 5505 5508 5510 5511 5513 5514
5501 5500 5499 5499 5498 5498 5497 5497 5496 5496 5495 5494 5493 5492 5491 5489 5488 5488 5487 5486 5485 5485 5485 5484 5483 5482 5482 5482 5482 5482 5482 5483 5484 5487 5489 5492 5495 5497 5499 5501 5503 5505 5506
5495 5494 5494 5493 5492 5491 5491 5490 5490 5489 5489 5487 5486 5485 5484 5482 5481 5480 5479 5479 5478 5478 5477 5477 5476 5476 5476 5476 5476 5476 5476 5477 5478 5480 5482 5485 5487 5490 5492 5494 5496 5497 5499
5489 5489 5488 5487 5487 5486 5485 5484 5484 5483 5482 5481 5480 5478 5477 5476 5474 5473 5472 5472 5471 5471 5470 5470 5470 5470 5470 5470 5470 5470 5470 5471 5472 5473 5476 5478 5480 5483 5485 5487 5489 5491 5493
5484 5483 5483 5482 5482 5481 5480 5479 5477 5476 5475 5474 5472 5471 5470 5469 5468 5467 5466 5465 5465 5465 5465 5464 5464 5464 5464 5464 5464 5465 5465 5465 5466 5468 5470 5472 5474 5476 5478 5480 5483 5485 5487
5479 5478 5478 5477 5477 5476 5475 5474 5472 5471 5469 5468 5467 5465 5464 5463 5462 5461 5460 5460 5460 5460 5460 5460 5460 5460 5459 5460 5460 5460 5460 5460 5461 5463 5465 5467 5469 5471 5473 5475 5477 5479 5482
5474 5473 5473 5473 5472 5471 5470 5469 5468 5467 5465 5463 5462 5461 5460 5459 5458 5457 5456 5456 5456 5456 5456 5456 5456 5456 5456 5456 5455 5456 5456 5456 5457 5459 5460 5462 5464 5466 5468 5470 5472 5475 5476
5469 5469 5468 5468 5467 5467 5466 5464 5463 5462 5461 5460 5459 5457 5456 5455 5454 5454 5453 5453 5453 5452 5452 5452 5452 5452 5452 5452 5452 5452 5453 5453 5454 5455 5457 5458 5460 5462 5464 5466 5468 5470 5471
5465 5465 5464 5464 5463 5462 5461 5460 5459 5458 5457 5456 5455 5454 5453 5452 5451 5451 5450 5450 5450 5449 5449 5449 5449 5449 5449 5449 5449 5449 5449 5450 5451 5452 5453 5455 5457 5458 5460 5462 5464 5465 5467
5461 5460 5460 5459 5459 5458 5457 5456 5455 5454 5454 5452 5451 5450 5449 5449 5448 5447 5447 5447 5447 5447 5447 5447 5447 5446 5446 5446 5446 5446 5446 5447 5448 5450 5451 5452 5454 5455 5457 5458 5460 5461 5463
5457 5457 5456 5456 5455 5454 5453 5452 5451 5450 5450 5449 5448 5447 5446 5445 5445 5445 5444 5444 5444 5444 5444 5444 5444 5443 5443 5443 5443 5444 5444 5445 5446 5447 5448 5450 5451 5452 5454 5455 5456 5457 5459
5453 5453 5453 5452 5451 5450 5449 5448 5447 5447 5446 5445 5444 5444 5443 5442 5442 5442 5442 5442 5442 5441 5441 5441 5441 5441 5441 5441 5441 5442 5442 5443 5444 5445 5446 5447 5449 5450 5451 5452 5453 5454 5455
5449 5449 5449 5448 5448 5447 5446 5445 5444 5443 5443 5442 5441 5440 5440 5439 5439 5439 5439 5439 5439 5439 5439 5439 5439 5439 5439 5439 5439 5440 5440 5441 5442 5443 5444 5445 5446 5447 5448 5449 5450 5451 5452
5445 5445 5445 5445 5444 5443 5442 5442 5441 5440 5440 5439 5438 5438 5437 5437 5436 5436 5436 5436 5436 5436 5436 5436 5437 5437 5437 5438 5438 5438 5439 5439 5440 5441 5442 5443 5444 5445 5446 5447 5447 5448 5449
5441 5441 5441 5441 5440 5440 5439 5438 5438 5437 5437 5436 5435 5435 5435 5435 5434 5434 5434 5434 5434 5434 5434 5435 5435 5435 5436 5436 5437 5437 5438 5438 5439 5440 5441 5441 5442 5443 5444 5445 5445 5446 5447
Wind_Speed
30 31 32 34 35 35 35 36 35 35 36 37 38 39 40 41 42 43 43 44 44 45 46 47 47 47 48 49 49 50 50 49 48 47 48 48 46 45 45 44 43 43 44
29 29 29 31 32 33 33 33 33 34 35 36 37 38 40 41 41 42 42 42 42 42 43 45 46 47 47 48 48 48 48 47 47 46 46 46 45 45 44 43 42 43 43
27 26 27 27 29 30 32 32 33 33 34 35 37 38 39 40 40 41 42 42 41 42 42 43 45 46 47 47 47 47 46 46 45 45 44 44 44 44 44 43 41 41 41
26 25 25 24 25 27 30 31 32 32 34 35 35 36 37 37 38 39 39 40 40 41 42 42 43 44 45 46 46 47 47 46 45 43 42 42 42 42 41 41 40 39 39
24 24 23 24 25 26 27 29 29 29 30 32 33 34 35 35 36 36 36 36 37 37 38 39 40 40 41 42 44 45 45 45 45 43 42 41 39 39 39 39 39 38 37
23 23 23 24 25 26 26 27 28 28 28 30 31 32 32 33 34 34 34 33 33 34 35 35 35 35 36 38 39 41 41 41 42 42 41 39 38 38 38 37 37 37 37
22 22 23 24 25 25 26 28 28 29 29 29 28 29 30 31 32 32 31 31 32 32 33 33 33 33 34 35 37 39 39 38 38 38 37 37 37 37 37 36 35 35 36
22 22 23 24 24 25 26 28 28 28 27 28 28 28 28 29 30 29 30 30 30 30 31 32 32 33 34 35 35 36 38 39 38 37 37 37 37 36 37 37 36 35 35
22 22 23 24 23 24 25 27 27 26 27 27 27 27 26 27 28 28 28 28 29 29 31 32 32 33 34 35 35 35 35 36 36 36 37 37 37 37 36 36 35 34 34
23 23 23 23 24 24 25 26 25 25 25 25 26 26 26 26 26 26 26 27 27 28 29 30 32 33 33 34 34 34 34 33 34 34 35 36 37 36 35 35 34 34 33
22 22 23 24 24 24 24 23 22 21 22 22 24 25 25 26 26 26 26 26 27 27 27 28 30 30 30 31 31 31 31 31 32 33 34 34 35 34 34 33 32 32 31
21 21 21 22 22 22 22 22 20 19 20 21 23 24 25 25 26 26 26 26 26 26 25 25 25 26 27 27 27 27 28 28 28 30 30 30 31 31 30 30 29 28 28
20 20 20 20 20 21 21 20 21 21 21 22 23 23 23 24 24 25 27 27 26 25 24 24 23 24 24 24 24 25 26 26 26 27 28 28 28 28 28 28 27 26 26
19 19 19 19 19 19 19 20 20 21 22 21 21 21 21 23 23 24 25 25 24 24 24 22 21 21 21 21 21 22 22 23 24 25 26 26 26 27 27 27 26 25 25
19 19 18 17 17 17 17 19 20 21 21 20 20 20 20 21 21 22 21 22 22 22 21 20 20 19 19 20 20 20 20 21 21 23 24 25 26 26 26 26 25 24 23
18 17 17 17 16 16 17 17 18 18 19 19 19 19 19 19 20 19 19 19 19 19 19 18 17 17 17 17 17 18 19 19 20 20 22 23 23 24 24 24 23 22 22
16 16 16 16 16 16 15 15 15 16 17 17 17 16 16 16 16 15 15 15 15 15 15 15 15 15 15 15 15 16 17 17 18 18 19 20 20 21 21 22 21 21 20
15 15 15 15 15 15 15 15 14 14 14 14 13 13 13 13 12 11 11 12 12 13 13 13 14 14 14 14 14 15 15 15 16 17 17 18 18 19 19 19 19 19 19
14 14 14 14 14 14 14 13 13 13 12 12 11 11 11 11 10 10 10 11 11 12 12 12 12 12 13 13 13 13 13 13 15 16 16 16 16 17 17 17 18 18 18
13 13 13 14 13 13 13 13 13 13 12 12 11 11 11 10 10 10 10 10 10 11 11 11 11 11 11 12 12 12 12 12 13 14 14 14 14 14 15 16 16 16 17
12 12 12 12 12 12 13 13 13 12 12 12 12 12 11 10 10 10 10 10 9 9 10 10 10 9 9 10 10 10 10 11 12 12 12 12 13 13 13 13 13 14 15
12 12 12 11 12 13 13 13 13 12 12 12 12 12 11 11 10 10 9 8 8 9 9 9 9 8 8 8 9 9 9 9 10 11 11 11 10 11 11 11 11 12 13
11 11 11 11 12 12 12 12 12 11 11 11 11 11 11 11 11 10 9 9 9 9 9 9 8 7 7 7 7 8 8 8 9 9 10 10 10 10 10 11 11 11 12
11 11 11 11 11 11 12 12 11 10 10 10 10 10 10 10 10 9 9 9 9 9 9 8 7 6 6 6 7 7 7 8 8 8 9 9 9 10 10 10 10 10 10
12 12 11 11 11 11 11 11 10 9 10 10 10 9 9 8 8 7 7 7 7 7 7 7 6 6 6 6 6 6 7 7 7 7 7 7 7 7 8 8 8 8 8
12 12 12 12 12 11 11 10 9 9 9 9 8 8 8 7 7 6 6 6 6 6 6 6 6 6 6 6 6 6 7 7 7 7 6 6 6 6 7 7 7 7 7
Wind_Direction
273 273 270 267 265 261 260 259 259 257 256 256 258 260 260 262 262 263 263 262 261 260 260 258 258 260 260 260 260 261 261 262 262 263 262 261 261 263 263 263 263 264 264
273 274 273 269 264 260 260 261 261 260 259 259 260 261 263 263 265 265 263 263 262 261 261 260 259 260 260 260 259 260 261 260 262 262 262 262 261 262 262 263 264 264 264
272 273 272 268 264 261 261 263 263 262 261 260 262 263 264 264 265 265 264 263 263 262 261 262 261 260 260 259 258 259 260 259 260 260 261 262 262 261 261 261 264 264 264
271 272 269 265 264 265 265 266 265 264 264 264 264 265 266 266 266 266 264 263 264 264 264 264 262 261 261 260 259 259 259 259 259 259 259 260 260 259 260 262 262 263 265
272 271 268 265 266 265 266 267 267 268 268 267 266 265 264 265 266 266 265 264 264 265 265 264 262 262 261 260 259 259 259 259 258 258 257 257 257 257 258 260 261 263 265
271 271 270 269 268 266 268 269 270 271 272 271 268 265 264 264 265 266 266 264 263 264 265 265 263 263 262 261 260 258 257 258 257 256 256 256 256 256 258 259 260 262 264
269 270 269 268 267 268 269 271 271 272 274 273 269 266 264 263 264 265 263 264 264 265 266 265 263 264 263 260 260 258 257 257 257 256 255 255 255 254 255 257 259 262 264
272 273 271 266 268 270 272 273 273 272 272 270 268 268 267 267 266 263 263 263 266 267 267 268 267 264 262 261 260 260 258 256 256 255 254 253 253 252 254 256 259 261 263
275 275 271 265 267 271 274 275 274 272 271 269 269 269 267 267 265 263 266 268 269 267 268 267 265 264 263 261 261 260 260 258 257 255 252 250 251 253 254 257 259 262 264
275 274 273 271 270 270 272 273 273 273 272 272 271 270 269 268 268 268 268 269 268 268 268 268 266 264 263 262 261 260 260 258 257 254 251 251 252 253 255 258 261 264 266
275 276 275 273 271 270 270 272 273 274 273 272 272 273 273 272 271 269 270 271 270 269 270 271 267 264 262 261 260 259 258 257 256 253 250 250 251 252 254 257 260 263 263
278 278 276 273 273 270 269 269 271 273 275 275 276 275 275 275 273 270 270 272 273 271 271 272 270 265 264 263 261 259 260 258 257 252 248 248 249 249 252 255 258 260 261
277 276 274 275 274 270 270 270 271 271 275 277 278 277 275 273 274 274 273 272 271 271 273 273 271 268 265 264 263 263 262 260 257 252 247 246 246 248 250 253 255 256 259
276 275 275 275 274 274 272 273 274 274 275 277 277 275 274 274 275 275 273 271 270 271 271 271 269 268 266 264 264 265 263 261 257 252 245 244 245 247 247 250 253 254 255
276 276 274 273 273 275 276 278 277 277 278 278 278 276 274 274 276 276 274 272 271 271 270 268 267 266 265 264 263 264 262 259 254 250 246 246 246 246 247 249 250 250 253
273 270 270 271 271 275 279 283 283 283 282 281 281 280 278 276 277 275 270 269 269 269 268 268 265 264 264 265 264 263 263 260 254 247 246 245 244 243 244 246 245 247 249
268 268 268 269 271 275 280 285 286 285 286 286 284 283 280 279 278 275 270 268 267 267 267 266 265 263 264 265 266 264 264 261 252 244 244 243 241 243 243 242 242 242 241
269 268 270 273 275 279 281 283 285 289 288 286 285 285 283 283 280 275 272 271 270 269 267 264 264 264 264 264 266 264 262 258 248 244 243 242 242 242 239 238 238 238 239
270 271 272 275 277 279 280 282 283 285 285 285 286 287 287 286 281 277 274 273 271 269 265 263 263 264 262 262 264 263 260 254 249 241 240 240 241 239 237 238 238 237 238
273 273 276 276 277 277 280 283 285 285 283 283 284 286 289 288 285 281 276 273 272 267 261 260 261 262 260 261 264 262 256 251 248 243 238 239 238 239 240 241 239 239 238
272 274 279 280 277 278 280 284 286 284 282 282 283 283 284 283 281 276 273 272 269 264 261 260 261 261 261 262 262 260 255 248 242 237 235 237 237 238 239 238 237 240 242
271 274 278 279 281 283 281 283 283 281 281 282 283 281 279 279 277 274 271 268 266 262 261 261 261 261 263 262 255 252 249 241 233 230 233 233 234 236 238 241 242 241 241
271 274 275 278 282 285 283 284 285 284 283 284 285 283 279 278 274 270 269 269 268 265 262 260 258 260 261 257 248 241 238 232 228 228 231 232 232 235 240 243 244 242 242
270 271 274 278 282 285 285 284 282 281 283 284 286 284 282 280 274 269 269 272 272 266 259 254 254 257 257 255 248 235 228 225 224 225 230 233 234 236 238 239 240 240 241
269 270 272 275 279 282 282 281 279 279 280 282 283 280 280 278 273 269 268 269 267 260 254 248 247 249 248 249 243 232 225 224 224 223 226 228 229 230 231 232 235 235 238
267 268 272 275 276 276 276 275 276 278 279 281 279 273 273 272 270 269 267 264 259 250 242 236 237 240 242 241 238 233 228 226 224 220 219 218 220 220 221 223 227 233 235